Wind_Speed
20 21 22 22 22 23 23 24 25 24 25 26 28 29 30 30 29 29 29 30 31 31 30 31 31 32 32 33 33 33 34 35 36 36 36 37 37 39 40 41 42 42 42 43
21 22 23 22 22 23 24 24 25 26 26 28 29 29 30 30 29 28 28 29 30 30 30 31 31 31 31 32 32 33 33 33 34 35 35 35 36 37 39 40 40 41 40 41
21 22 23 22 22 23 24 25 26 27 27 28 28 29 29 28 27 28 28 29 29 29 29 30 30 29 30 30 31 31 31 32 32 32 33 34 35 35 36 37 39 39 40 40
23 22 23 23 23 24 24 25 26 27 28 28 28 28 27 27 27 27 27 28 27 27 27 28 28 28 28 29 29 29 30 30 30 29 31 32 33 33 34 34 35 36 37 38
23 23 24 23 24 25 25 25 26 27 27 28 27 27 26 26 27 27 27 27 27 27 26 26 26 26 26 26 26 27 28 28 28 29 31 31 31 31 31 31 31 32 33 35
23 24 24 24 25 25 26 26 26 27 27 27 26 26 26 26 27 28 28 27 27 26 26 26 25 25 25 23 23 23 24 25 26 27 28 29 28 29 29 29 29 30 31 32
23 24 24 24 25 25 26 27 27 27 27 27 27 27 27 27 27 27 28 28 27 26 26 26 25 24 24 23 22 22 23 24 25 25 26 26 26 28 28 29 29 29 30 31
23 24 25 25 25 26 27 27 28 28 28 28 27 27 27 28 28 28 27 27 27 26 26 26 25 24 23 22 22 22 22 23 24 24 25 25 25 25 26 27 27 27 28 28
23 23 24 25 26 27 27 28 28 28 28 28 27 27 27 27 28 28 28 27 26 26 26 25 25 24 22 21 21 22 23 23 23 24 23 23 23 23 24 24 25 25 25 26
22 22 23 24 25 26 27 28 27 27 27 27 27 27 27 27 27 28 28 27 26 26 24 24 23 23 22 22 22 23 23 23 23 22 21 22 22 22 23 23 23 23 24 25
23 23 24 24 25 26 27 28 27 27 27 27 27 27 27 27 27 27 26 26 25 24 23 23 23 23 23 23 24 24 23 23 23 22 22 23 23 23 23 22 23 23 24 25
24 25 25 25 26 27 27 27 27 27 27 27 27 27 27 27 27 26 26 25 24 24 23 23 24 23 23 24 24 23 23 22 23 23 23 23 23 23 23 23 23 24 25 25
25 26 26 26 27 27 28 28 28 27 27 27 27 27 27 27 27 26 25 24 24 23 23 22 22 23 23 23 23 22 22 22 22 22 22 22 22 22 23 23 23 24 24 24
26 26 26 26 27 28 28 28 27 28 28 28 28 28 28 27 26 25 24 23 22 21 21 21 21 21 21 21 21 21 21 21 22 22 22 22 22 23 23 23 23 23 23 22
26 26 26 27 27 27 27 27 28 28 27 27 27 27 26 26 25 24 23 21 21 20 20 20 19 19 19 19 19 20 20 20 20 20 21 21 21 22 22 22 22 21 21 21
26 26 26 27 27 27 28 28 27 26 26 25 25 24 23 23 22 21 20 19 19 18 18 18 18 18 18 18 19 19 19 19 19 19 19 20 20 20 21 21 20 20 20 20
26 26 26 27 27 27 27 27 26 25 24 23 23 22 21 20 19 18 17 17 17 17 17 16 16 16 16 17 17 18 18 18 18 18 19 19 19 20 19 19 19 18 19 19
26 26 26 26 26 26 26 25 24 24 23 22 21 20 19 18 18 17 17 17 17 17 16 16 16 16 16 16 17 17 17 17 18 18 19 19 19 19 18 18 17 17 18 17
26 26 26 25 25 25 25 24 24 23 21 20 19 19 18 18 18 17 17 17 17 16 16 16 16 16 16 16 17 17 17 17 17 18 18 18 18 18 17 16 16 16 15 15
26 25 25 25 25 25 24 23 23 22 21 20 19 18 18 18 17 17 17 17 16 16 15 15 15 15 16 17 17 16 16 16 17 17 17 17 17 16 16 16 15 15 14 13
25 25 24 24 24 24 23 22 21 20 20 19 18 18 17 17 17 17 16 16 15 15 15 15 15 16 16 16 16 16 16 16 16 16 16 15 15 14 14 14 14 14 13 12
25 24 24 23 24 24 23 21 20 20 19 19 18 17 17 17 16 16 15 15 15 15 15 15 15 15 15 15 15 14 15 15 15 14 14 13 13 13 13 13 13 12 11 11
24 23 23 23 23 22 21 20 20 19 18 18 17 16 16 15 15 15 14 14 14 14 14 14 14 14 13 13 13 13 13 13 13 13 13 12 12 12 12 12 12 11 11 10
23 22 22 22 22 21 20 19 19 18 17 17 16 15 15 14 14 14 13 13 13 13 13 12 12 12 12 12 11 11 11 11 12 12 12 12 12 11 11 11 11 11 10 9
23 22 21 21 20 19 18 18 18 17 16 15 15 14 14 14 13 13 13 13 12 12 12 12 11 11 11 11 11 11 11 11 12 12 12 11 11 11 11 11 10 10 9 9
22 21 21 20 19 18 18 17 17 16 15 15 15 14 14 14 13 13 13 13 12 11 11 11 11 11 11 11 11 12 12 12 12 12 11 11 11 11 11 11 10 9 9 9
21 21 20 19 18 17 17 16 15 15 15 15 14 14 14 14 13 13 13 12 12 12 12 12 12 12 12 12 12 13 13 13 13 12 12 12 11 11 10 10 9 9 9 9
Wind_Direction
278 279 280 281 280 280 283 287 290 291 291 290 289 290 291 292 292 289 287 286 285 282 281 281 279 279 277 275 273 272 270 268 265 264 264 264 262 261 261 260 261 261 262 262
278 279 279 280 279 280 284 288 291 292 293 292 293 291 291 292 290 288 288 288 287 284 282 281 279 277 277 274 273 273 271 270 268 268 266 266 265 264 263 261 260 261 262 262
279 279 279 280 281 283 286 289 292 293 293 293 293 292 290 290 290 288 288 289 288 287 286 283 279 277 276 274 273 272 272 271 270 269 268 267 267 267 265 263 261 261 262 262
283 282 282 284 284 285 288 290 291 292 293 293 293 292 291 290 289 292 292 291 290 289 288 286 282 280 278 276 274 273 273 271 271 271 271 269 269 267 267 266 264 263 264 264
284 284 284 284 286 288 290 291 292 292 293 293 293 292 291 290 290 290 291 291 290 291 292 291 289 285 283 280 278 275 273 271 271 273 272 270 270 269 268 268 267 267 267 266
285 286 287 288 288 289 290 290 293 293 293 294 293 292 293 292 291 290 291 291 290 291 291 292 293 292 289 286 283 280 276 275 276 277 276 273 271 272 271 269 270 270 269 268
287 286 288 290 290 290 289 292 294 294 294 295 294 294 294 293 292 293 292 291 290 290 290 291 293 292 290 288 285 283 281 279 280 280 280 277 274 273 271 271 271 271 270 268
288 288 290 291 291 292 292 293 293 293 293 294 295 294 294 294 294 294 293 291 290 290 289 290 291 292 290 288 285 285 284 283 283 283 282 280 277 274 274 273 273 273 270 268
290 292 292 292 292 293 294 295 295 294 294 294 294 295 295 295 294 293 293 291 289 288 288 288 289 289 288 287 287 287 286 284 283 283 282 281 279 278 278 279 278 275 273 272
291 292 293 294 294 294 295 297 297 295 295 295 294 295 295 296 296 295 293 292 288 285 286 285 284 285 285 286 286 288 288 285 285 283 282 283 283 283 282 281 279 277 278 278
290 292 292 293 294 295 298 300 299 298 297 297 296 295 295 296 296 296 294 292 289 285 283 283 283 283 284 285 286 287 287 284 283 283 283 284 285 285 284 283 283 282 281 281
291 292 293 294 294 295 298 299 299 298 296 296 296 295 296 296 295 295 294 292 290 287 284 282 281 281 283 284 285 286 285 284 283 283 284 285 284 284 285 286 285 285 285 284
291 293 294 295 296 298 299 299 299 299 297 296 295 295 295 296 296 295 294 293 292 289 285 282 281 281 283 284 284 283 284 283 283 283 284 283 283 284 285 285 286 287 286 285
291 293 294 297 299 299 300 300 300 300 298 297 297 296 295 294 294 294 293 292 291 291 288 285 283 282 283 283 282 282 283 283 283 284 284 283 284 285 286 287 288 287 286 285
292 293 295 297 299 300 300 301 301 300 298 297 297 297 296 294 293 292 291 289 288 289 289 287 285 284 284 284 284 284 285 286 286 286 286 287 287 287 287 287 288 288 286 284
292 293 294 296 299 299 299 301 301 301 300 298 300 300 298 297 296 294 292 290 289 291 291 289 287 287 287 287 287 288 288 289 289 290 291 292 291 290 290 290 289 288 286 284
292 293 294 296 298 298 300 302 302 302 301 300 301 302 301 299 298 296 294 292 292 293 292 290 289 288 289 290 290 290 290 290 290 292 293 294 293 292 292 290 288 286 287 286
293 295 296 297 299 299 300 301 302 303 303 302 301 302 302 299 297 295 294 293 294 294 293 292 291 290 291 292 292 291 290 290 291 292 295 296 294 292 289 287 286 287 288 287
293 295 296 297 299 300 300 301 301 301 302 302 301 301 301 298 297 295 293 293 294 293 293 293 293 293 294 295 295 293 291 290 292 293 295 296 295 292 288 286 287 287 288 286
292 293 295 297 299 300 300 300 301 300 299 299 299 299 299 299 299 297 294 292 292 291 293 294 294 294 297 298 297 295 294 294 295 295 295 295 294 290 287 286 287 287 287 284
292 292 294 297 298 299 300 300 299 300 299 297 297 297 296 297 298 297 295 293 292 291 292 295 296 297 299 300 298 296 296 297 298 297 295 295 295 292 287 285 286 286 285 280
292 292 293 296 297 299 298 297 298 298 297 296 295 294 294 295 296 296 295 293 291 291 292 294 295 298 301 301 299 298 298 299 300 300 297 295 295 293 289 287 287 286 283 277
291 291 292 295 297 298 296 296 297 297 296 294 293 293 294 295 296 296 295 292 291 291 291 293 296 299 301 303 302 302 301 300 300 300 299 297 296 294 292 290 289 286 282 275
291 290 292 294 297 296 295 295 297 296 295 293 290 290 291 293 294 295 296 293 291 290 291 293 295 298 301 303 304 304 304 303 302 302 301 299 298 297 296 293 291 287 282 272
291 291 292 293 293 292 292 294 295 294 293 292 291 288 287 289 290 291 294 294 291 290 291 293 295 296 299 303 303 303 303 304 305 305 302 299 298 297 297 296 291 283 273 267
291 291 291 290 289 287 289 291 293 293 292 291 290 289 288 288 287 288 292 292 290 291 291 292 294 294 296 299 302 303 303 303 305 305 303 300 298 298 295 291 285 277 269 266
291 290 288 286 285 286 288 289 290 291 293 293 291 290 290 289 286 287 289 290 289 290 290 290 291 292 293 296 298 301 302 302 301 302 303 300 297 297 297 289 280 273 268 266
Height
5611 5610 5610 5609 5609 5607 5606 5605 5604 5603 5601 5599 5595 5592 5589 5586 5583 5581 5578 5576 5573 5571 5568 5566 5564 5562 5560 5559 5557 5557 5556 5555 5556 5556 5557 5557 5559 5561 5562 5563 5565 5566 5567 5569
5606 5605 5604 5604 5603 5602 5601 5599 5598 5596 5594 5591 5588 5585 5582 5578 5575 5573 5570 5568 5565 5563 5560 5558 5556 5554 5552 5550 5549 5548 5547 5546 5546 5546 5547 5547 5548 5550 5551 5552 5553 5555 5556 5558
5601 5600 5599 5599 5598 5596 5595 5593 5591 5589 5588 5584 5581 5577 5574 5571 5569 5566 5563 5560 5558 5555 5552 5550 5548 5546 5544 5542 5540 5539 5538 5538 5538 5537 5538 5538 5539 5539 5540 5541 5542 5544 5546 5547
5594 5594 5593 5595 5592 5590 5589 5587 5584 5582 5579 5576 5573 5570 5567 5564 5561 5559 5556 5553 5550 5548 5545 5542 5540 5537 5535 5534 5532 5531 5530 5530 5529 5529 5529 5529 5530 5530 5531 5532 5533 5535 5536 5537
5588 5587 5587 5587 5585 5583 5582 5580 5578 5575 5572 5569 5566 5563 5561 5557 5554 5552 5549 5546 5543 5541 5538 5535 5532 5530 5528 5526 5524 5524 5523 5523 5522 5522 5521 5521 5522 5522 5523 5523 5524 5525 5526 5527
5583 5581 5580 5582 5579 5576 5576 5574 5571 5568 5565 5562 5559 5557 5555 5551 5548 5545 5542 5539 5536 5534 5532 5529 5526 5523 5521 5519 5518 5517 5516 5516 5515 5514 5514 5513 5513 5514 5514 5515 5516 5516 5517 5518
5577 5575 5574 5574 5572 5570 5570 5568 5564 5561 5558 5555 5552 5549 5547 5543 5541 5538 5535 5532 5529 5527 5525 5522 5520 5517 5516 5513 5512 5511 5510 5510 5509 5508 5507 5506 5506 5506 5506 5507 5507 5508 5508 5509
5571 5569 5571 5567 5565 5564 5563 5559 5556 5553 5551 5548 5545 5542 5539 5536 5533 5530 5527 5525 5522 5520 5518 5516 5513 5511 5510 5508 5506 5505 5504 5504 5503 5502 5501 5500 5499 5499 5499 5499 5500 5500 5500 5501
5567 5566 5563 5561 5559 5557 5555 5552 5549 5546 5543 5541 5538 5535 5532 5529 5526 5523 5520 5517 5515 5513 5511 5509 5507 5505 5504 5502 5501 5500 5498 5497 5496 5495 5494 5494 5493 5493 5493 5493 5492 5493 5493 5493
5561 5559 5557 5555 5552 5550 5548 5545 5542 5539 5536 5533 5530 5528 5525 5522 5519 5516 5513 5510 5508 5506 5504 5502 5501 5499 5498 5497 5495 5494 5492 5491 5490 5489 5489 5488 5487 5487 5486 5486 5486 5486 5485 5485
5554 5553 5551 5549 5546 5544 5541 5538 5535 5532 5529 5526 5523 5521 5518 5515 5512 5509 5506 5503 5501 5498 5497 5496 5494 5493 5492 5490 5489 5488 5486 5485 5484 5483 5483 5482 5481 5480 5480 5479 5479 5478 5478 5477
5548 5547 5545 5543 5540 5537 5534 5531 5528 5526 5523 5520 5516 5514 5511 5508 5505 5502 5499 5496 5494 5492 5490 5489 5487 5486 5485 5484 5482 5481 5480 5479 5478 5477 5477 5476 5475 5474 5473 5472 5472 5471 5470 5469
5541 5539 5537 5535 5533 5530 5527 5524 5521 5518 5515 5513 5510 5507 5504 5501 5498 5495 5492 5490 5487 5485 5483 5482 5481 5480 5479 5477 5476 5475 5474 5473 5472 5471 5470 5469 5468 5468 5466 5466 5464 5464 5462 5461
5534 5532 5530 5528 5526 5523 5520 5517 5514 5511 5508 5505 5502 5499 5496 5494 5491 5488 5485 5483 5481 5479 5477 5476 5474 5473 5472 5471 5470 5469 5468 5467 5466 5465 5464 5463 5462 5461 5460 5459 5458 5456 5455 5454
5527 5525 5523 5521 5518 5516 5513 5510 5507 5504 5501 5498 5495 5492 5489 5486 5483 5481 5479 5477 5475 5473 5471 5470 5468 5467 5466 5465 5464 5463 5462 5461 5460 5459 5458 5457 5455 5454 5453 5452 5451 5450 5448 5447
5520 5518 5516 5514 5511 5509 5506 5503 5500 5497 5494 5491 5488 5485 5482 5479 5476 5474 5472 5470 5469 5467 5465 5464 5463 5462 5461 5460 5459 5458 5457 5456 5454 5453 5452 5451 5449 5448 5447 5445 5444 5443 5442 5441
5513 5511 5509 5507 5504 5501 5498 5495 5492 5489 5487 5484 5481 5478 5475 5473 5470 5469 5467 5465 5463 5462 5460 5459 5458 5457 5456 5455 5454 5453 5452 5451 5449 5448 5447 5445 5444 5442 5441 5440 5438 5437 5436 5435
5505 5503 5501 5499 5496 5494 5491 5488 5486 5483 5480 5477 5475 5472 5470 5467 5466 5464 5462 5460 5459 5457 5456 5455 5454 5453 5452 5450 5449 5448 5447 5445 5444 5443 5442 5440 5438 5437 5436 5434 5433 5432 5431 5429
5498 5496 5494 5492 5489 5487 5484 5482 5479 5476 5474 5472 5469 5467 5465 5463 5461 5459 5457 5456 5454 5453 5451 5450 5449 5448 5447 5446 5444 5443 5442 5441 5439 5438 5437 5435 5433 5431 5430 5429 5428 5427 5426 5424
5490 5489 5487 5485 5482 5480 5478 5475 5473 5470 5468 5466 5464 5462 5460 5458 5456 5454 5452 5451 5449 5448 5447 5446 5445 5443 5442 5441 5439 5438 5437 5436 5435 5433 5431 5430 5428 5427 5425 5424 5423 5422 5421 5420
5483 5482 5480 5478 5476 5474 5471 5469 5467 5465 5462 5460 5459 5457 5455 5453 5451 5449 5447 5446 5444 5443 5442 5441 5440 5439 5437 5436 5435 5434 5433 5431 5430 5428 5427 5425 5424 5422 5421 5420 5419 5418 5418 5417
5476 5475 5473 5471 5469 5467 5465 5463 5461 5459 5457 5455 5453 5451 5450 5448 5446 5444 5443 5441 5440 5439 5438 5437 5436 5434 5433 5432 5430 5429 5428 5427 5426 5424 5423 5421 5420 5419 5418 5417 5416 5415 5414 5413
5469 5468 5466 5465 5463 5460 5458 5457 5455 5453 5451 5449 5448 5446 5445 5443 5441 5440 5439 5437 5436 5435 5434 5433 5432 5430 5429 5428 5427 5425 5424 5423 5422 5421 5419 5418 5417 5416 5414 5413 5412 5411 5411 5410
5462 5461 5459 5458 5456 5454 5452 5451 5449 5447 5446 5444 5443 5441 5440 5439 5437 5436 5434 5433 5432 5431 5430 5429 5428 5427 5426 5425 5423 5422 5421 5420 5419 5417 5416 5415 5413 5412 5411 5410 5409 5408 5408 5407
5456 5454 5453 5451 5449 5448 5447 5445 5444 5442 5441 5439 5438 5437 5435 5434 5433 5432 5431 5429 5428 5427 5426 5425 5424 5423 5423 5422 5421 5419 5418 5417 5416 5414 5413 5411 5410 5409 5408 5407 5406 5405 5405 5404
5449 5447 5446 5445 5443 5442 5441 5440 5438 5437 5436 5435 5433 5432 5431 5430 5429 5428 5427 5426 5425 5424 5423 5422 5421 5420 5420 5419 5418 5416 5415 5414 5412 5411 5409 5408 5407 5405 5404 5403 5402 5402 5402 5401
5442 5441 5439 5438 5437 5437 5436 5434 5433 5432 5431 5430 5429 5428 5427 5426 5425 5424 5423 5422 5421 5421 5420 5419 5418 5417 5416 5415 5414 5413 5412 5410 5409 5407 5406 5405 5403 5402 5401 5400 5399 5399 5398 5398